Location: Home
(42.5358°N, 72.7383°W)
Time: 09:55:19
(UTC-04:00)

A-11 Canister half - Pass Details

Date: 26 June 2022
Orbit: 1514 x 1685 km, 47.2° (Epoch: 15 August)

Event Time Altitude Azimuth Distance (km) Brightness Sun altitude
Rises 20:52:28 0° 165° (SSE) 4,920 11.2 -3.8°
Reaches altitude 10° 20:59:31 10° 132° (SE) 3,942 10.5 -4.9°
Maximum altitude 21:01:33 11° 120° (ESE) 3,882 10.5 -5.1°
Drops below altitude 10° 21:03:34 10° 108° (ESE) 3,940 10.6 -5.4°
Sets 21:10:31 0° 76° (ENE) 4,911 11.3 -6.4°
